星链-6167 (STARLINK-6167 )

导读 | 豆包AI

STARLINK-6167是美国SpaceX公司星链(Starlink)卫星互联网星座中的一颗低轨卫星,于2023年6月23日发射入轨。星链项目旨在通过大量低轨道卫星组网,为全球提供高速低延迟互联网服务,尤其覆盖地面基础设施难以到达的偏远区域。作为星链星座扩容的一部分,该卫星助力完善全球覆盖能力,推动项目持续扩展,同时也引发了关于太空拥堵和天文观测影响的讨论。

基本信息
目录编号:
57126
目录名称:
STARLINK-6167
国际标识:
2023-090AB
轨道中心:
EARTH
卫星名称:
星链-6167
卫星全名:
星链-6167 (STARLINK-6167 )
卫星状态:
在轨 (已飞行1042 天)
发射日期:
2023-06-23 UTC
国别 :
美国 (US)
星等 :
--
轨道信息
数据来源 国际轨道数据
星历时间: 2026-04-30T07:50:08+0800
8小时前
查看轨道信息
半长轴: 6863.049km
偏心率: 0.0001966
轨道倾角: 43.001°
近地点辐角 273.634°
升交点赤经 352.235°
平近点角 86.429°
近地点: 483.562km
远地点: 486.262km
周期: 94.305分钟
每日圈数: 15.269583
详细信息
固有亮度:
5
最大亮度:
2.4
卫星平台:
Starlink v1.5
覆盖范围:
全球
运营商:
太空探索技术公司
运营商所在国:
美国
制造商(研发单位):
太空探索技术公司
制造商所在国:
美国
使用方式:
暂无
卫星简介
星链(Starlink)计划是由太空探索技术公司(SpaceX)提出的一个巨型低轨卫星互联网星座项目,计划在2019年至2024年间在太空搭建由约1.2万颗卫星组成的“星链”网络,其中1584颗将部署在地球上空550千米处的近地轨道,并从2020年开始工作。该卫星仍在工作。
2D轨道图
3D轨道图
轨道高度分析图
轨道倾角分析图
轨道综合分析图
查看轨道综合分析图